Theta_e
358 358 359 358 360 361 359 358 360 361 362 363 365 365 363 362 365 366 364 361 360 359 360 361 362 364 356 352 353 353 351 350 344 346 352 358 366 366 366 368 364 362 354
357 358 358 360 360 358 359 357 359 359 362 364 364 364 364 364 366 366 362 358 360 359 358 361 360 357 363 363 355 360 358 358 351 355 359 354 362 366 365 366 360 357 359
356 355 357 358 358 358 358 359 359 359 360 360 362 362 362 364 365 365 365 362 361 361 361 361 359 359 360 357 359 354 353 354 356 352 351 353 355 359 361 367 362 364 355
353 354 356 357 359 358 359 360 359 360 359 359 360 362 363 363 363 363 363 364 364 363 363 363 362 359 360 362 361 363 362 359 359 352 350 349 352 362 358 352 349 352 352
352 352 354 358 359 359 360 359 359 360 359 360 359 359 361 361 359 362 364 363 364 363 364 364 363 359 349 352 356 364 365 359 354 350 349 350 349 348 353 349 348 350 356
352 350 355 357 358 359 360 359 359 359 359 360 358 356 356 354 340 339 355 362 363 363 363 364 365 354 352 342 341 341 349 359 358 350 345 345 361 355 351 349 349 346 344
351 352 352 355 355 357 358 359 358 359 359 359 358 358 358 358 334 333 341 360 361 364 364 363 361 358 356 363 344 338 339 336 340 358 356 356 358 359 362 361 362 355 352
341 348 351 352 353 356 355 356 357 357 358 358 358 359 359 359 331 329 335 358 360 364 364 364 364 364 363 361 362 361 362 362 360 356 358 359 363 363 364 364 365 363 360
326 331 337 350 352 354 352 354 356 356 355 356 357 359 361 361 328 327 335 351 351 362 363 366 365 366 349 334 361 360 360 359 344 337 338 337 334 334 341 356 350 346 342
326 326 331 335 340 348 353 357 357 357 355 353 355 357 348 360 334 323 333 351 351 345 358 367 339 355 336 329 361 360 358 356 354 355 358 351 342 353 334 355 356 348 344
328 328 327 335 336 342 346 345 351 358 360 357 355 355 358 355 357 323 320 354 350 349 343 343 350 330 328 323 327 365 360 358 352 354 353 354 355 358 359 362 366 357 349
328 327 328 327 331 338 345 348 351 351 354 352 349 351 353 359 336 329 319 322 341 353 353 349 350 321 320 321 327 334 327 331 352 345 344 347 347 348 350 357 372 370 365
326 326 326 327 328 334 339 342 343 347 348 350 347 347 348 354 356 325 319 318 321 344 354 345 327 316 312 320 320 324 323 349 349 346 344 347 348 350 363 366 368 374 372
322 323 323 322 322 326 330 333 335 338 339 339 354 349 348 350 356 357 357 340 322 331 337 345 342 336 329 340 343 334 346 352 351 348 347 350 351 351 349 352 353 354 354
322 319 322 319 318 320 324 327 329 336 332 332 339 346 348 349 351 340 341 359 357 342 345 352 351 351 352 354 354 355 356 355 352 352 351 351 351 351 350 351 352 352 351
321 320 318 319 318 317 318 321 315 311 310 306 304 320 339 322 315 314 308 312 313 315 344 349 352 353 354 355 354 354 355 350 355 355 354 353 352 351 350 349 350 351 350
319 320 319 316 316 316 319 321 322 323 306 306 304 303 302 311 308 307 307 308 311 318 350 352 351 354 356 357 356 354 353 355 359 356 354 353 353 351 348 348 349 350 351
316 311 316 317 317 317 319 321 322 322 323 326 316 313 311 304 304 302 305 312 329 323 348 349 351 353 357 355 354 355 355 356 355 355 354 355 352 351 349 350 351 352 353
312 315 316 317 317 316 318 319 320 323 324 326 327 322 320 307 304 300 303 331 344 344 342 345 351 356 357 358 359 359 360 358 356 355 355 354 354 358 357 357 356 335 341
311 311 310 312 314 316 317 318 319 321 322 324 325 326 331 321 321 329 335 326 333 345 352 349 352 353 358 364 366 365 365 360 359 357 354 355 355 355 353 354 353 352 352
308 311 312 310 312 313 315 317 319 318 320 321 322 322 300 315 320 325 327 334 334 338 340 330 343 352 353 350 348 347 353 349 345 343 343 343 345 351 349 347 349 351 351
304 307 309 310 311 312 312 316 318 315 313 316 317 316 301 316 313 313 313 311 312 319 325 325 320 317 317 322 327 331 333 333 330 331 332 336 339 339 339 338 338 338 338
301 301 303 305 306 306 306 311 312 313 310 311 312 309 308 306 305 304 304 305 306 306 308 312 313 309 308 309 311 312 319 319 318 321 325 329 330 332 333 335 337 335 336
298 298 299 301 303 304 305 306 307 303 304 306 305 303 302 301 300 299 299 299 300 301 303 304 306 306 307 307 308 308 310 312 317 320 324 326 326 322 330 326 323 323 323
295 295 296 297 298 300 301 301 302 302 302 301 300 298 298 297 296 296 297 298 297 296 297 298 299 298 297 298 300 303 295 294 310 304 316 318 316 318 318 316 316 315 316
293 294 294 295 295 296 296 297 297 297 297 296 296 295 295 294 294 293 293 293 293 293 293 293 293 294 293 292 290 288 286 289 297 294 311 312 310 312 312 312 314 312 312
Wind_Speed
16 16 15 15 15 13 13 13 12 11 10 10 10 10 10 9 9 9 6 5 9 8 7 7 8 7 8 6 5 5 5 5 7 7 6 3 6 7 9 9 10 10 6
15 15 16 15 14 15 14 14 12 13 12 11 10 10 10 10 10 10 10 8 9 9 9 8 9 7 8 8 7 6 7 6 7 8 7 8 6 7 8 10 9 9 8
14 15 15 15 15 16 15 14 14 13 13 13 12 12 12 12 11 11 11 11 10 10 9 9 9 8 8 9 6 7 7 6 7 8 8 8 7 8 7 8 8 7 9
13 14 14 15 15 15 15 14 15 14 14 14 14 13 13 12 12 12 12 12 12 11 11 11 10 10 10 9 9 8 7 8 8 8 9 8 8 6 7 8 8 7 8
10 12 13 13 14 14 14 14 15 15 14 14 14 14 14 13 11 13 13 13 13 12 12 11 12 11 10 10 8 9 8 8 9 8 8 8 8 6 8 9 9 8 8
9 11 11 11 12 13 13 14 15 15 15 14 15 16 16 13 13 11 13 13 14 13 12 12 13 9 12 11 11 11 10 9 10 9 10 10 7 8 8 8 9 9 9
9 8 9 10 11 12 13 13 14 15 15 15 16 16 16 16 11 13 16 15 14 13 14 12 12 12 13 14 16 15 14 13 14 12 13 11 11 10 9 10 9 9 10
14 11 7 7 7 9 11 13 13 13 14 14 15 16 16 15 14 16 16 17 15 15 15 15 15 14 13 14 14 14 14 14 14 12 15 15 14 12 10 10 10 10 10
13 12 15 12 9 10 9 11 10 11 13 14 15 16 16 16 14 17 16 18 18 17 16 16 16 16 14 11 15 15 14 14 11 15 16 15 11 10 9 10 11 11 11
12 11 10 11 12 12 11 10 11 12 12 11 15 16 17 17 13 16 17 14 16 16 16 17 16 19 13 14 16 16 16 15 15 14 10 13 14 15 15 13 11 12 12
13 13 11 9 9 12 8 7 11 11 11 11 14 14 16 16 17 16 19 16 15 14 16 15 16 22 22 17 18 17 16 13 13 13 13 13 12 13 12 12 12 12 12
12 12 12 11 11 9 10 9 9 10 12 10 10 11 12 14 16 14 19 23 17 16 16 14 15 14 21 22 18 20 12 9 14 14 14 13 12 12 11 10 10 12 11
11 12 11 12 12 13 11 11 9 8 8 10 7 9 10 11 14 18 18 21 22 17 15 16 12 4 11 15 18 14 14 13 14 15 15 13 12 12 10 8 8 9 12
10 11 9 10 11 11 10 10 9 6 7 7 8 9 8 8 13 12 10 12 18 14 20 16 15 13 12 12 11 13 12 14 14 14 14 13 12 11 11 11 11 11 12
10 8 10 8 9 11 11 9 11 13 9 7 8 8 8 8 10 14 14 12 12 15 12 12 13 14 15 15 14 15 13 13 14 14 13 13 12 12 12 11 11 11 12
12 10 7 8 9 9 8 12 12 14 15 15 17 10 11 13 19 23 16 17 11 6 10 13 14 15 16 15 15 14 12 13 13 13 13 13 13 13 12 12 12 12 12
13 12 10 9 9 10 10 10 13 11 14 15 15 18 12 20 19 20 18 16 9 9 12 11 14 15 15 12 11 11 12 11 10 12 13 14 13 13 12 13 12 12 13
14 12 11 11 11 11 11 11 11 13 12 12 10 11 10 12 17 16 16 8 3 7 11 11 12 11 9 9 11 13 12 10 11 10 11 14 13 12 12 13 12 12 12
14 12 12 10 11 11 11 12 12 13 12 12 11 11 8 11 9 6 10 6 9 9 10 10 10 10 12 11 11 13 12 11 12 10 10 9 9 11 12 12 10 11 10
14 16 11 11 12 13 12 12 10 12 13 11 11 11 9 8 7 9 5 6 8 9 8 9 11 11 12 12 10 9 9 9 9 9 8 8 9 8 8 8 7 7 7
12 13 11 10 12 12 12 12 11 10 12 10 10 7 6 8 8 9 5 6 6 3 4 2 3 8 6 5 4 3 5 4 3 3 3 2 1 4 2 1 2 4 4
12 13 13 13 11 12 12 12 11 8 11 11 10 6 6 8 4 3 3 5 10 8 5 4 4 5 6 6 5 4 5 4 4 2 2 5 5 5 4 5 5 4 3
10 11 12 13 13 12 12 12 12 10 8 8 7 6 5 4 3 4 6 4 3 4 5 5 2 7 4 4 4 5 4 3 1 1 4 3 2 1 2 2 2 3 4
11 11 12 11 10 10 10 11 10 8 6 5 4 3 4 2 2 4 3 3 2 4 5 5 5 8 6 5 3 2 2 1 1 1 3 4 3 1 2 3 3 4 3
9 9 9 9 9 9 8 8 8 6 4 3 3 1 0 3 2 5 6 4 5 5 7 7 7 7 9 11 8 9 7 9 5 4 4 7 8 6 6 5 5 6 6
8 9 6 6 6 6 6 4 3 2 1 3 4 4 5 6 5 6 7 6 6 7 9 7 9 12 11 9 10 9 8 10 8 9 6 5 6 6 6 8 10 7 7
Wind_Direction
216 211 214 213 213 213 215 222 230 225 226 230 215 211 212 208 199 196 233 209 211 224 245 238 235 252 262 247 243 259 266 263 284 295 331 278 317 304 319 317 301 301 322
220 215 215 217 212 210 215 216 220 226 219 219 220 223 228 229 210 210 213 210 215 221 226 232 236 232 227 248 261 261 290 304 286 292 294 287 280 308 295 302 306 311 332
211 216 218 216 215 218 214 214 213 218 223 224 221 222 224 223 225 216 220 221 221 222 224 228 237 230 234 262 243 274 243 232 239 257 284 283 294 292 303 284 296 301 285
221 214 219 221 221 221 224 219 213 209 218 219 222 225 226 228 221 228 221 226 230 230 230 233 234 236 235 233 239 245 253 269 255 255 265 274 274 290 276 286 308 311 322
242 239 221 218 225 227 226 224 222 216 214 220 217 220 227 229 224 219 229 226 228 234 241 235 231 238 235 241 248 224 258 250 258 260 265 273 277 301 326 307 294 307 299
239 244 252 238 228 226 224 224 225 221 221 218 221 221 222 230 220 196 223 229 229 234 237 236 241 208 221 222 233 256 273 263 260 279 284 285 298 278 278 292 312 305 306
281 247 248 243 241 235 233 228 226 226 225 223 225 224 225 224 214 196 198 233 238 232 237 241 237 230 212 230 217 230 242 240 240 257 267 271 284 279 283 286 285 305 293
352 329 300 277 256 255 245 240 234 236 230 228 229 230 231 228 207 195 198 223 235 242 241 237 241 252 235 225 238 228 229 231 223 229 239 256 260 262 266 270 278 281 266
360 351 344 320 290 253 248 250 252 240 240 236 234 233 231 236 203 201 196 226 234 237 240 239 238 238 239 209 236 245 247 252 238 220 237 251 255 271 268 285 275 274 277
355 340 329 333 324 300 291 258 242 240 240 248 244 236 236 240 213 201 202 230 235 236 230 231 223 238 225 202 223 236 246 251 257 269 233 244 246 247 233 237 253 258 270
340 336 334 323 323 305 287 274 283 261 249 242 244 255 252 238 237 203 198 226 234 234 238 238 232 206 218 216 217 235 237 244 252 251 255 256 253 245 237 208 221 245 262
332 329 331 328 321 304 299 297 278 255 263 241 239 250 244 248 235 218 200 212 229 239 245 243 241 203 207 211 209 233 237 246 254 258 259 256 255 254 251 235 223 226 250
314 323 322 323 318 310 305 299 288 267 252 258 238 242 246 250 257 218 201 207 223 235 242 244 265 252 207 210 220 224 214 237 246 247 249 251 253 258 269 260 250 251 248
299 304 313 315 319 305 296 295 283 282 285 302 257 237 244 247 259 254 223 210 226 222 242 250 252 258 259 249 218 213 229 235 236 237 243 250 254 253 250 239 244 253 246
271 280 297 296 307 310 291 285 295 292 315 289 284 304 300 271 252 261 263 243 216 218 233 230 232 231 235 236 231 235 221 216 228 238 244 245 245 246 249 249 245 251 255
273 271 257 299 297 296 290 295 257 237 266 279 274 232 282 271 283 289 280 259 234 207 199 232 231 233 233 230 230 227 231 235 234 228 232 238 243 244 246 247 248 249 256
275 277 276 267 278 290 290 295 292 281 234 241 262 264 217 259 269 272 268 277 270 203 224 230 236 239 233 234 233 233 225 221 225 241 248 255 250 248 240 247 256 257 250
272 265 270 270 270 273 277 281 288 287 293 296 264 254 268 267 273 281 273 213 202 251 226 230 236 250 238 218 224 233 229 221 215 219 232 246 241 243 243 243 243 253 258
283 274 274 273 274 280 284 283 277 281 284 290 296 294 318 2 303 261 208 237 240 219 218 228 239 245 236 225 219 226 224 219 221 217 220 226 246 255 249 254 258 244 268
274 270 261 275 272 268 264 265 269 275 276 275 285 296 317 323 324 307 246 226 234 249 235 215 222 231 242 244 242 234 231 229 222 220 213 220 226 230 241 247 243 241 228
278 276 270 278 269 268 269 264 260 258 272 279 278 293 358 308 300 288 311 288 241 292 289 342 316 243 244 250 238 223 227 196 204 199 197 175 178 228 190 199 244 244 249
292 287 285 267 268 267 263 266 267 254 261 268 280 293 317 286 299 301 355 9 16 342 303 238 138 74 13 353 322 230 182 209 194 178 236 265 247 218 193 177 175 178 180
281 279 274 270 271 269 261 258 266 268 256 264 277 288 291 296 316 22 25 31 343 306 330 340 8 99 87 58 19 338 15 68 288 113 125 204 214 195 222 227 241 264 242
292 286 279 274 273 269 259 259 262 259 260 252 255 268 283 322 330 62 59 53 35 18 24 32 24 61 75 90 78 55 20 70 265 92 209 161 164 212 189 84 73 91 72
305 288 278 274 271 271 264 255 261 259 248 219 163 172 150 77 35 64 66 61 63 52 46 40 42 49 58 71 75 70 36 28 47 33 67 82 94 93 102 93 93 84 59
328 320 303 285 271 264 264 257 248 240 176 122 110 108 101 86 52 64 53 56 57 56 56 49 55 57 57 47 50 45 43 46 49 48 74 89 98 95 87 79 70 59 48